| time (UTC) | temp F | wind direction | speed MPH | gust MPH | rain 1hr in | rain 24hr in | rain mn in | humidity % | barometer mb |
| 20260507191600 | 82 | 117 | 11.0 | 17.0 | 0.00 | 0.00 | 0.00 | 71 | 1013.2 |
| 20260507190058 | 81 | 109 | 9.0 | 16.0 | 0.00 | 0.00 | 0.00 | 71 | 1013.5 |
| 20260507184558 | 82 | 98 | 11.0 | 17.0 | 0.00 | 0.00 | 0.00 | 71 | 1013.4 |
| 20260507183057 | 82 | 108 | 11.0 | 17.0 | 0.00 | 0.00 | 0.00 | 71 | 1013.6 |
| 20260507181556 | 82 | 105 | 11.0 | 16.0 | 0.00 | 0.00 | 0.00 | 71 | 1013.5 |
| 20260507180100 | 82 | 80 | 11.0 | 15.0 | 0.00 | 0.00 | 0.00 | 70 | 1013.5 |
| 20260507174607 | 82 | 68 | 10.0 | 17.0 | 0.00 | 0.00 | 0.00 | 71 | 1013.5 |
| 20260507173052 | 82 | 76 | 10.0 | 14.0 | 0.00 | 0.00 | 0.00 | 71 | 1013.6 |
| 20260507171603 | 81 | 132 | 7.0 | 13.0 | 0.00 | 0.00 | 0.00 | 72 | 1013.6 |
| 20260507170048 | 80 | 98 | 6.0 | 12.0 | 0.00 | 0.00 | 0.00 | 72 | 1013.7 |
| 20260507164549 | 81 | 115 | 7.0 | 9.0 | 0.00 | 0.00 | 0.00 | 71 | 1014.0 |
| 20260507163049 | 80 | 122 | 5.0 | 8.0 | 0.00 | 0.00 | 0.00 | 73 | 1014.0 |
| 20260507161544 | 79 | 143 | 3.0 | 5.0 | 0.00 | 0.00 | 0.00 | 71 | 1014.0 |
| 20260507160048 | 80 | 120 | 0.0 | 3.0 | 0.00 | 0.00 | 0.00 | 68 | 1014.0 |
| 20260507154539 | 79 | 312 | 0.0 | 2.0 | 0.00 | 0.00 | 0.00 | 69 | 1014.2 |
| 20260507153043 | 79 | 15 | 0.0 | 3.0 | 0.00 | 0.00 | 0.00 | 71 | 1014.0 |
| 20260507151535 | 78 | 309 | 3.0 | 7.0 | 0.00 | 0.00 | 0.00 | 71 | 1014.0 |
| 20260507150033 | 77 | 296 | 4.0 | 8.0 | 0.00 | 0.00 | 0.00 | 73 | 1013.8 |
| 20260507144534 | 76 | 304 | 8.0 | 10.0 | 0.00 | 0.00 | 0.00 | 75 | 1013.5 |
| 20260507143027 | 76 | 312 | 6.0 | 10.0 | 0.00 | 0.00 | 0.00 | 76 | 1013.6 |
| 20260507141526 | 75 | 313 | 5.0 | 7.0 | 0.00 | 0.00 | 0.00 | 78 | 1013.5 |
| 20260507140024 | 75 | 316 | 4.0 | 6.0 | 0.00 | 0.00 | 0.00 | 80 | 1013.3 |
| 20260507134524 | 73 | 335 | 3.0 | 5.0 | 0.00 | 0.00 | 0.00 | 81 | 1013.2 |
| 20260507133022 | 73 | 319 | 3.0 | 4.0 | 0.00 | 0.00 | 0.00 | 81 | 1013.1 |
| 20260507131522 | 73 | 327 | 0.0 | 3.0 | 0.00 | 0.00 | 0.00 | 81 | 1012.8 |
| 20260507130026 | 73 | 295 | 1.0 | 3.0 | 0.00 | 0.00 | 0.00 | 80 | 1012.6 |
| 20260507124531 | 76 | 305 | 0.0 | 5.0 | 0.00 | 0.00 | 0.00 | 80 | 1012.3 |
| 20260507123018 | 76 | 128 | 4.0 | 8.0 | 0.00 | 0.00 | 0.00 | 85 | 1012.4 |
| 20260507121515 | 75 | 138 | 0.0 | 2.0 | 0.00 | 0.00 | 0.00 | 83 | 1012.4 |
| 20260507120013 | 75 | 14 | 0.0 | 2.0 | 0.00 | 0.00 | 0.00 | 82 | 1012.1 |
| 20260507114510 | 75 | 49 | 0.0 | 1.0 | 0.00 | 0.00 | 0.00 | 81 | 1012.0 |
| 20260507111642 | 74 | 302 | 0.0 | 1.0 | 0.00 | 0.00 | 0.00 | 79 | 1012.0 |
| 20260507104521 | 74 | 333 | 1.0 | 3.0 | 0.00 | 0.00 | 0.00 | 81 | 1011.7 |
| 20260507103020 | 74 | 322 | 1.0 | 4.0 | 0.00 | 0.00 | 0.00 | 81 | 1011.6 |
| 20260507101520 | 74 | 304 | 3.0 | 3.0 | 0.00 | 0.00 | 0.00 | 82 | 1011.5 |
| 20260507100024 | 74 | 339 | 0.0 | 3.0 | 0.00 | 0.00 | 0.00 | 82 | 1011.6 |
| 20260507094519 | 73 | 320 | 2.0 | 4.0 | 0.00 | 0.00 | 0.00 | 82 | 1011.4 |
| 20260507093024 | 73 | 303 | 1.0 | 4.0 | 0.00 | 0.00 | 0.00 | 82 | 1011.6 |
| 20260507091523 | 73 | 319 | 2.0 | 4.0 | 0.00 | 0.00 | 0.00 | 82 | 1011.8 |
| 20260507090014 | 73 | 312 | 1.0 | 2.0 | 0.00 | 0.00 | 0.00 | 81 | 1012.1 |
| 20260507084519 | 73 | 286 | 2.0 | 5.0 | 0.00 | 0.00 | 0.00 | 82 | 1012.2 |
| 20260507083013 | 73 | 283 | 2.0 | 3.0 | 0.00 | 0.00 | 0.00 | 83 | 1012.0 |
| 20260507081511 | 73 | 301 | 1.0 | 3.0 | 0.00 | 0.00 | 0.00 | 83 | 1012.1 |
| 20260507080007 | 73 | 299 | 0.0 | 2.0 | 0.00 | 0.00 | 0.00 | 83 | 1012.5 |
| 20260507074508 | 73 | 309 | 0.0 | 1.0 | 0.00 | 0.00 | 0.00 | 83 | 1012.5 |
| 20260507073005 | 73 | 309 | 0.0 | 0.0 | 0.00 | 0.00 | 0.00 | 83 | 1012.6 |
| 20260507071504 | 74 | 309 | 0.0 | 0.0 | 0.00 | 0.00 | 0.00 | 82 | 1012.8 |
| 20260507070116 | 74 | 292 | 0.0 | 2.0 | 0.00 | 0.00 | 0.00 | 82 | 1013.0 |
| 20260507064612 | 74 | 279 | 0.0 | 1.0 | 0.00 | 0.00 | 0.00 | 82 | 1013.1 |
| 20260507063101 | 74 | 287 | 0.0 | 2.0 | 0.00 | 0.00 | 0.00 | 81 | 1013.2 |
| 20260507061555 | 75 | 310 | 0.0 | 2.0 | 0.00 | 0.00 | 0.00 | 80 | 1013.2 |
| 20260507060053 | 75 | 278 | 1.0 | 3.0 | 0.00 | 0.00 | 0.00 | 81 | 1013.4 |
| 20260507054555 | 75 | 286 | 1.0 | 2.0 | 0.00 | 0.00 | 0.00 | 80 | 1013.3 |
| 20260507053050 | 76 | 283 | 0.0 | 2.0 | 0.00 | 0.00 | 0.00 | 80 | 1013.6 |
| 20260507051549 | 77 | 318 | 0.0 | 2.0 | 0.00 | 0.00 | 0.00 | 79 | 1013.4 |
| 20260507050046 | 77 | 254 | 0.0 | 2.0 | 0.00 | 0.00 | 0.00 | 79 | 1013.6 |
| 20260507044546 | 77 | 243 | 0.0 | 2.0 | 0.00 | 0.00 | 0.00 | 79 | 1013.5 |
| 20260507043044 | 77 | 236 | 0.0 | 2.0 | 0.00 | 0.00 | 0.00 | 78 | 1013.5 |
| 20260507041545 | 78 | 250 | 0.0 | 0.0 | 0.00 | 0.00 | 0.00 | 78 | 1013.4 |
| 20260507040042 | 78 | 269 | 0.0 | 2.0 | 0.00 | 0.00 | 0.00 | 78 | 1013.4 |
| 20260507034542 | 78 | 240 | 0.0 | 2.0 | 0.00 | 0.00 | 0.00 | 78 | 1013.5 |
| 20260507033042 | 78 | 226 | 0.0 | 2.0 | 0.00 | 0.00 | 0.00 | 77 | 1013.4 |
| 20260507031539 | 78 | 219 | 1.0 | 4.0 | 0.00 | 0.00 | 0.00 | 77 | 1013.3 |
| 20260507030042 | 78 | 221 | 0.0 | 3.0 | 0.00 | 0.00 | 0.00 | 77 | 1013.2 |
| 20260507024538 | 79 | 221 | 1.0 | 3.0 | 0.00 | 0.00 | 0.00 | 77 | 1013.2 |
| 20260507023037 | 79 | 257 | 0.0 | 4.0 | 0.00 | 0.00 | 0.00 | 76 | 1012.9 |
| 20260507021538 | 79 | 218 | 1.0 | 5.0 | 0.00 | 0.00 | 0.00 | 76 | 1012.9 |
| 20260507020042 | 79 | 217 | 2.0 | 4.0 | 0.00 | 0.00 | 0.00 | 76 | 1012.9 |
| 20260507014533 | 80 | 196 | 2.0 | 4.0 | 0.00 | 0.00 | 0.00 | 75 | 1012.9 |
| 20260507013045 | 80 | 145 | 1.0 | 4.0 | 0.00 | 0.00 | 0.00 | 74 | 1012.9 |
| 20260507011533 | 81 | 210 | 1.0 | 5.0 | 0.00 | 0.00 | 0.00 | 74 | 1012.9 |
| 20260507010036 | 81 | 229 | 1.0 | 4.0 | 0.00 | 0.00 | 0.00 | 73 | 1012.7 |
| 20260507004530 | 81 | 188 | 1.0 | 6.0 | 0.00 | 0.00 | 0.00 | 74 | 1012.8 |
| 20260507003029 | 81 | 127 | 5.0 | 8.0 | 0.00 | 0.00 | 0.00 | 72 | 1012.7 |
| 20260507001531 | 81 | 158 | 4.0 | 7.0 | 0.00 | 0.00 | 0.00 | 71 | 1012.8 |
| 20260507000028 | 81 | 123 | 5.0 | 8.0 | 0.00 | 0.00 | 0.00 | 73 | 1012.7 |
| 20260506234534 | 81 | 96 | 4.0 | 9.0 | 0.00 | 0.00 | 0.00 | 74 | 1012.6 |
| 20260506233042 | 81 | 82 | 5.0 | 10.0 | 0.00 | 0.00 | 0.00 | 73 | 1012.6 |
| 20260506231528 | 81 | 115 | 7.0 | 11.0 | 0.00 | 0.00 | 0.00 | 73 | 1012.7 |
| 20260506230026 | 82 | 84 | 7.0 | 11.0 | 0.00 | 0.00 | 0.00 | 73 | 1012.7 |
| 20260506224523 | 81 | 104 | 9.0 | 14.0 | 0.00 | 0.00 | 0.00 | 72 | 1012.7 |
| 20260506223021 | 82 | 125 | 8.0 | 12.0 | 0.00 | 0.00 | 0.00 | 73 | 1012.7 |
| 20260506221520 | 82 | 79 | 8.0 | 14.0 | 0.00 | 0.00 | 0.00 | 72 | 1012.8 |
| 20260506220027 | 82 | 132 | 9.0 | 13.0 | 0.00 | 0.00 | 0.00 | 72 | 1013.0 |
| 20260506214518 | 82 | 75 | 9.0 | 15.0 | 0.00 | 0.00 | 0.00 | 72 | 1013.1 |
| 20260506213017 | 82 | 78 | 10.0 | 16.0 | 0.00 | 0.00 | 0.00 | 72 | 1013.0 |
| 20260506211522 | 83 | 102 | 9.0 | 14.0 | 0.00 | 0.00 | 0.00 | 70 | 1013.3 |
| 20260506210025 | 83 | 94 | 10.0 | 16.0 | 0.00 | 0.00 | 0.00 | 71 | 1013.3 |
| 20260506204513 | 83 | 104 | 10.0 | 14.0 | 0.00 | 0.00 | 0.00 | 68 | 1013.5 |
| 20260506203011 | 83 | 87 | 8.0 | 13.0 | 0.00 | 0.00 | 0.00 | 69 | 1013.6 |
| 20260506201510 | 83 | 121 | 8.0 | 13.0 | 0.00 | 0.00 | 0.00 | 70 | 1013.8 |
| 20260506200018 | 83 | 84 | 9.0 | 14.0 | 0.00 | 0.00 | 0.00 | 71 | 1013.9 |
| 20260506194507 | 83 | 103 | 9.0 | 14.0 | 0.00 | 0.00 | 0.00 | 70 | 1014.0 |
| 20260506193007 | 83 | 113 | 9.0 | 15.0 | 0.00 | 0.00 | 0.00 | 71 | 1014.0 |